owner,sensor,date,latitude,longitude,air_pressure(mBar),qcFlag 
ADCP,ioos:station:wmo:42362:1,2005-07-02T17:00:00Z,27.7950,-90.6480,1015.2,11111222 
ADCP,ioos:station:wmo:42362:1,2005-07-02T19:00:00Z,27.7950,-90.6480,1014.2,11111222 
ADCP,ioos:station:wmo:42362:1,2005-07-02T20:00:00Z,27.7950,-90.6480,1013.9,11111222 
ADCP,ioos:station:wmo:42362:1,2005-07-02T21:00:00Z,27.7950,-90.6480,1013.6,11111222 
ADCP,ioos:station:wmo:42362:1,2005-07-02T22:00:00Z,27.7950,-90.6480,1013.2,11111222 
ADCP,ioos:station:wmo:42362:1,2005-07-02T23:00:00Z,27.7950,-90.6480,1013.2,11111222 
ADCP,ioos:station:wmo:42362:1,2005-07-03T00:00:00Z,27.7950,-90.6480,1013.2,11111222 
ADCP,ioos:station:wmo:42362:1,2005-07-03T01:00:00Z,27.7950,-90.6480,1013.9,11111222 
ADCP,ioos:station:wmo:42362:1,2005-07-03T02:00:00Z,27.7950,-90.6480,1014.2,11111222 
ADCP,ioos:station:wmo:42362:1,2005-07-03T03:00:00Z,27.7950,-90.6480,1014.2,11111222 
ADCP,ioos:station:wmo:42362:1,2005-07-03T04:00:00Z,27.7950,-90.6480,1014.9,11111222 
ADCP,ioos:station:wmo:42362:1,2005-07-03T05:00:00Z,27.7950,-90.6480,1014.9,11111222 
ADCP,ioos:station:wmo:42362:1,2005-07-03T06:00:00Z,27.7950,-90.6480,1014.9,11111222 
ADCP,ioos:station:wmo:42362:1,2005-07-03T07:00:00Z,27.7950,-90.6480,1014.6,11111222 
ADCP,ioos:station:wmo:42362:1,2005-07-03T08:00:00Z,27.7950,-90.6480,1013.9,11111222 
ADCP,ioos:station:wmo:42362:1,2005-07-03T09:00:00Z,27.7950,-90.6480,1013.6,11111222 
ADCP,ioos:station:wmo:42362:1,2005-07-03T10:00:00Z,27.7950,-90.6480,1013.9,11111222 
ADCP,ioos:station:wmo:42362:1,2005-07-03T11:00:00Z,27.7950,-90.6480,1013.9,11111222 
ADCP,ioos:station:wmo:42362:1,2005-07-03T12:00:00Z,27.7950,-90.6480,1014.2,11111222 
ADCP,ioos:station:wmo:42362:1,2005-07-03T13:00:00Z,27.7950,-90.6480,1014.6,11111222 
ADCP,ioos:station:wmo:42362:1,2005-07-03T14:00:00Z,27.7950,-90.6480,1015.2,11111222 
ADCP,ioos:station:wmo:42362:1,2005-07-03T15:00:00Z,27.7950,-90.6480,1015.9,11111222 
ADCP,ioos:station:wmo:42362:1,2005-07-03T16:00:00Z,27.7950,-90.6480,1016.3,11111222 
ADCP,ioos:station:wmo:42362:1,2005-07-03T17:00:00Z,27.7950,-90.6480,1016.3,11111222 
ADCP,ioos:station:wmo:42362:1,2005-07-03T18:00:00Z,27.7950,-90.6480,1016.3,11111222 
ADCP,ioos:station:wmo:42362:1,2005-07-03T19:00:00Z,27.7950,-90.6480,1016.3,11111222 
ADCP,ioos:station:wmo:42362:1,2005-07-03T20:00:00Z,27.7950,-90.6480,1015.9,11111222 
ADCP,ioos:station:wmo:42362:1,2005-07-03T21:00:00Z,27.7950,-90.6480,1015.6,11111222 
ADCP,ioos:station:wmo:42362:1,2005-07-03T22:00:00Z,27.7950,-90.6480,1015.2,11111222 
ADCP,ioos:station:wmo:42362:1,2005-07-03T23:00:00Z,27.7950,-90.6480,1015.2,11111222 
ADCP,ioos:station:wmo:42362:1,2005-07-04T00:00:00Z,27.7950,-90.6480,1015.6,11111222 
ADCP,ioos:station:wmo:42362:1,2005-07-04T01:00:00Z,27.7950,-90.6480,1015.6,11111222 
ADCP,ioos:station:wmo:42362:1,2005-07-04T02:00:00Z,27.7950,-90.6480,1015.9,11111222 
ADCP,ioos:station:wmo:42362:1,2005-07-04T03:00:00Z,27.7950,-90.6480,1016.6,11111222 
ADCP,ioos:station:wmo:42362:1,2005-07-04T04:00:00Z,27.7950,-90.6480,1017.0,11111222 
ADCP,ioos:station:wmo:42362:1,2005-07-04T05:00:00Z,27.7950,-90.6480,1017.0,11111222 
ADCP,ioos:station:wmo:42362:1,2005-07-04T06:00:00Z,27.7950,-90.6480,1016.6,11111222 
ADCP,ioos:station:wmo:42362:1,2005-07-04T07:00:00Z,27.7950,-90.6480,1015.9,11111222 
ADCP,ioos:station:wmo:42362:1,2005-07-04T08:00:00Z,27.7950,-90.6480,1015.9,11111222 
ADCP,ioos:station:wmo:42362:1,2005-07-04T09:00:00Z,27.7950,-90.6480,1015.6,11111222 
ADCP,ioos:station:wmo:42362:1,2005-07-04T10:00:00Z,27.7950,-90.6480,1015.9,11111222 
ADCP,ioos:station:wmo:42362:1,2005-07-04T11:00:00Z,27.7950,-90.6480,1016.6,11111222 
ADCP,ioos:station:wmo:42362:1,2005-07-04T12:00:00Z,27.7950,-90.6480,1017.0,11111222 
ADCP,ioos:station:wmo:42362:1,2005-07-04T13:00:00Z,27.7950,-90.6480,1017.3,11111222 
ADCP,ioos:station:wmo:42362:1,2005-07-04T14:00:00Z,27.7950,-90.6480,1018.3,11111222 
ADCP,ioos:station:wmo:42362:1,2005-07-04T15:00:00Z,27.7950,-90.6480,1018.3,11111222 
ADCP,ioos:station:wmo:42362:1,2005-07-04T16:00:00Z,27.7950,-90.6480,1018.6,11111222 
ADCP,ioos:station:wmo:42362:1,2005-07-04T17:00:00Z,27.7950,-90.6480,1018.3,11111222 
ADCP,ioos:station:wmo:42362:1,2005-07-04T18:00:00Z,27.7950,-90.6480,1018.3,11111222 
ADCP,ioos:station:wmo:42362:1,2005-07-04T19:00:00Z,27.7950,-90.6480,1017.6,11111222 
ADCP,ioos:station:wmo:42362:1,2005-07-04T20:00:00Z,27.7950,-90.6480,1017.6,11111222 
ADCP,ioos:station:wmo:42362:1,2005-07-04T21:00:00Z,27.7950,-90.6480,1017.0,11111222 
ADCP,ioos:station:wmo:42362:1,2005-07-04T22:00:00Z,27.7950,-90.6480,1017.0,11111222 
ADCP,ioos:station:wmo:42362:1,2005-07-04T23:00:00Z,27.7950,-90.6480,1017.0,11111222 
ADCP,ioos:station:wmo:42362:1,2005-07-05T00:00:00Z,27.7950,-90.6480,1017.3,11111222 
ADCP,ioos:station:wmo:42362:1,2005-07-05T01:00:00Z,27.7950,-90.6480,1017.0,11111222 
ADCP,ioos:station:wmo:42362:1,2005-07-05T02:00:00Z,27.7950,-90.6480,1017.3,11111222 
ADCP,ioos:station:wmo:42362:1,2005-07-05T03:00:00Z,27.7950,-90.6480,1017.0,11111222 
ADCP,ioos:station:wmo:42362:1,2005-07-05T04:00:00Z,27.7950,-90.6480,1017.0,11111222 
ADCP,ioos:station:wmo:42362:1,2005-07-05T05:00:00Z,27.7950,-90.6480,1016.6,11111222 
ADCP,ioos:station:wmo:42362:1,2005-07-05T06:00:00Z,27.7950,-90.6480,1015.9,11111222 
ADCP,ioos:station:wmo:42362:1,2005-07-05T07:00:00Z,27.7950,-90.6480,1015.2,11111222 
ADCP,ioos:station:wmo:42362:1,2005-07-05T08:00:00Z,27.7950,-90.6480,1014.6,11111222 
ADCP,ioos:station:wmo:42362:1,2005-07-05T09:00:00Z,27.7950,-90.6480,1013.6,11111222 
ADCP,ioos:station:wmo:42362:1,2005-07-05T10:00:00Z,27.7950,-90.6480,1013.2,11111222 
ADCP,ioos:station:wmo:42362:1,2005-07-05T11:00:00Z,27.7950,-90.6480,1013.2,11111222 
ADCP,ioos:station:wmo:42362:1,2005-07-05T12:00:00Z,27.7950,-90.6480,1013.2,11111222 
ADCP,ioos:station:wmo:42362:1,2005-07-05T13:00:00Z,27.7950,-90.6480,1013.6,11111222 
ADCP,ioos:station:wmo:42362:1,2005-07-05T14:00:00Z,27.7950,-90.6480,1012.9,11111222 
ADCP,ioos:station:wmo:42362:1,2005-07-05T15:00:00Z,27.7950,-90.6480,1012.9,11111222 
ADCP,ioos:station:wmo:42362:1,2005-07-05T16:00:00Z,27.7950,-90.6480,1011.9,11111222 
ADCP,ioos:station:wmo:42362:1,2005-07-05T17:00:00Z,27.7950,-90.6480,1011.2,11111222 
ADCP,ioos:station:wmo:42362:1,2005-07-05T18:00:00Z,27.7950,-90.6480,1009.2,11111222 
ADCP,ioos:station:wmo:42362:1,2005-07-05T19:00:00Z,27.7950,-90.6480,1005.8,11111222 
ADCP,ioos:station:wmo:42362:1,2005-07-05T20:00:00Z,27.7950,-90.6480,1003.7,11111222 
ADCP,ioos:station:wmo:42362:1,2005-07-05T21:00:00Z,27.7950,-90.6480,1003.7,11111222 
ADCP,ioos:station:wmo:42362:1,2005-07-05T22:00:00Z,27.7950,-90.6480,1004.1,11111222 
ADCP,ioos:station:wmo:42362:1,2005-07-05T23:00:00Z,27.7950,-90.6480,1006.1,11111222 
ADCP,ioos:station:wmo:42362:1,2005-07-06T00:00:00Z,27.7950,-90.6480,1007.5,11111222 
ADCP,ioos:station:wmo:42362:1,2005-07-06T01:00:00Z,27.7950,-90.6480,1008.1,11111222 
ADCP,ioos:station:wmo:42362:1,2005-07-06T02:00:00Z,27.7950,-90.6480,1009.8,11111222 
ADCP,ioos:station:wmo:42362:1,2005-07-06T03:00:00Z,27.7950,-90.6480,1010.8,11111222 
ADCP,ioos:station:wmo:42362:1,2005-07-06T04:00:00Z,27.7950,-90.6480,1012.2,11111222 
ADCP,ioos:station:wmo:42362:1,2005-07-06T05:00:00Z,27.7950,-90.6480,1012.5,11111222 
ADCP,ioos:station:wmo:42362:1,2005-07-06T06:00:00Z,27.7950,-90.6480,1012.5,11111222 
ADCP,ioos:station:wmo:42362:1,2005-07-06T07:00:00Z,27.7950,-90.6480,1012.5,11111222 
ADCP,ioos:station:wmo:42362:1,2005-07-06T08:00:00Z,27.7950,-90.6480,1012.5,11111222 
ADCP,ioos:station:wmo:42362:1,2005-07-06T09:00:00Z,27.7950,-90.6480,1012.9,11111222 
ADCP,ioos:station:wmo:42362:1,2005-07-06T10:00:00Z,27.7950,-90.6480,1013.2,11111222 
ADCP,ioos:station:wmo:42362:1,2005-07-06T11:00:00Z,27.7950,-90.6480,1013.2,11111222 
ADCP,ioos:station:wmo:42362:1,2005-07-06T12:00:00Z,27.7950,-90.6480,1013.9,11111222 
ADCP,ioos:station:wmo:42362:1,2005-07-06T13:00:00Z,27.7950,-90.6480,1014.2,11111222 
ADCP,ioos:station:wmo:42362:1,2005-07-06T14:00:00Z,27.7950,-90.6480,1014.9,11111222 
ADCP,ioos:station:wmo:42362:1,2005-07-06T15:00:00Z,27.7950,-90.6480,1015.2,11111222 
ADCP,ioos:station:wmo:42362:1,2005-07-06T16:00:00Z,27.7950,-90.6480,1015.6,11111222 
ADCP,ioos:station:wmo:42362:1,2005-07-06T17:00:00Z,27.7950,-90.6480,1015.9,11111222 
ADCP,ioos:station:wmo:42362:1,2005-07-06T18:00:00Z,27.7950,-90.6480,1015.9,11111222 
ADCP,ioos:station:wmo:42362:1,2005-07-06T19:00:00Z,27.7950,-90.6480,1015.9,11111222 
ADCP,ioos:station:wmo:42362:1,2005-07-06T20:00:00Z,27.7950,-90.6480,1015.2,11111222 
ADCP,ioos:station:wmo:42362:1,2005-07-06T21:00:00Z,27.7950,-90.6480,1014.9,11111222 
ADCP,ioos:station:wmo:42362:1,2005-07-06T22:00:00Z,27.7950,-90.6480,1014.2,11111222 
ADCP,ioos:station:wmo:42362:1,2005-07-06T23:00:00Z,27.7950,-90.6480,1014.2,11111222 
ADCP,ioos:station:wmo:42362:1,2005-07-07T00:00:00Z,27.7950,-90.6480,1014.6,11111222 
ADCP,ioos:station:wmo:42362:1,2005-07-07T01:00:00Z,27.7950,-90.6480,1014.9,11111222 
ADCP,ioos:station:wmo:42362:1,2005-07-07T02:00:00Z,27.7950,-90.6480,1014.9,11111222 
ADCP,ioos:station:wmo:42362:1,2005-07-07T03:00:00Z,27.7950,-90.6480,1015.2,11111222 
ADCP,ioos:station:wmo:42362:1,2005-07-07T04:00:00Z,27.7950,-90.6480,1015.6,11111222 
ADCP,ioos:station:wmo:42362:1,2005-07-07T05:00:00Z,27.7950,-90.6480,1015.6,11111222 
ADCP,ioos:station:wmo:42362:1,2005-07-07T06:00:00Z,27.7950,-90.6480,1015.9,11111222 
ADCP,ioos:station:wmo:42362:1,2005-07-07T07:00:00Z,27.7950,-90.6480,1015.6,11111222 
ADCP,ioos:station:wmo:42362:1,2005-07-07T08:00:00Z,27.7950,-90.6480,1014.9,11111222 
ADCP,ioos:station:wmo:42362:1,2005-07-07T09:00:00Z,27.7950,-90.6480,1014.9,11111222 
ADCP,ioos:station:wmo:42362:1,2005-07-07T10:00:00Z,27.7950,-90.6480,1014.9,11111222 
ADCP,ioos:station:wmo:42362:1,2005-07-07T11:00:00Z,27.7950,-90.6480,1014.9,11111222 
ADCP,ioos:station:wmo:42362:1,2005-07-07T12:00:00Z,27.7950,-90.6480,1015.6,11111222 
ADCP,ioos:station:wmo:42362:1,2005-07-07T13:00:00Z,27.7950,-90.6480,1016.3,11111222 
ADCP,ioos:station:wmo:42362:1,2005-07-07T14:00:00Z,27.7950,-90.6480,1016.6,11111222 
ADCP,ioos:station:wmo:42362:1,2005-07-07T15:00:00Z,27.7950,-90.6480,1017.0,11111222 
ADCP,ioos:station:wmo:42362:1,2005-07-07T16:00:00Z,27.7950,-90.6480,1017.3,11111222 
ADCP,ioos:station:wmo:42362:1,2005-07-07T17:00:00Z,27.7950,-90.6480,1017.3,11111222 
ADCP,ioos:station:wmo:42362:1,2005-07-07T18:00:00Z,27.7950,-90.6480,1017.0,11111222 
ADCP,ioos:station:wmo:42362:1,2005-07-07T19:00:00Z,27.7950,-90.6480,1016.6,11111222 
ADCP,ioos:station:wmo:42362:1,2005-07-07T20:00:00Z,27.7950,-90.6480,1016.3,11111222 
ADCP,ioos:station:wmo:42362:1,2005-07-07T21:00:00Z,27.7950,-90.6480,1015.9,11111222 
ADCP,ioos:station:wmo:42362:1,2005-07-07T22:00:00Z,27.7950,-90.6480,1015.9,11111222 
ADCP,ioos:station:wmo:42362:1,2005-07-07T23:00:00Z,27.7950,-90.6480,1015.2,11111222 
ADCP,ioos:station:wmo:42362:1,2005-07-08T00:00:00Z,27.7950,-90.6480,1015.2,11111222 
ADCP,ioos:station:wmo:42362:1,2005-07-08T01:00:00Z,27.7950,-90.6480,1014.9,11111222 
ADCP,ioos:station:wmo:42362:1,2005-07-08T02:00:00Z,27.7950,-90.6480,1015.6,11111222 
ADCP,ioos:station:wmo:42362:1,2005-07-08T03:00:00Z,27.7950,-90.6480,1015.9,11111222 
ADCP,ioos:station:wmo:42362:1,2005-07-08T04:00:00Z,27.7950,-90.6480,1015.9,11111222 
ADCP,ioos:station:wmo:42362:1,2005-07-08T05:00:00Z,27.7950,-90.6480,1014.9,11111222 
ADCP,ioos:station:wmo:42362:1,2005-07-08T06:00:00Z,27.7950,-90.6480,1015.6,11111222 
ADCP,ioos:station:wmo:42362:1,2005-07-08T07:00:00Z,27.7950,-90.6480,1014.9,11111222 
ADCP,ioos:station:wmo:42362:1,2005-07-08T08:00:00Z,27.7950,-90.6480,1014.9,11111222 
ADCP,ioos:station:wmo:42362:1,2005-07-08T09:00:00Z,27.7950,-90.6480,1015.2,11111222 
ADCP,ioos:station:wmo:42362:1,2005-07-08T10:00:00Z,27.7950,-90.6480,1015.2,11111222 
ADCP,ioos:station:wmo:42362:1,2005-07-08T11:00:00Z,27.7950,-90.6480,1015.2,11111222 
ADCP,ioos:station:wmo:42362:1,2005-07-08T12:00:00Z,27.7950,-90.6480,1015.9,11111222 
ADCP,ioos:station:wmo:42362:1,2005-07-08T13:00:00Z,27.7950,-90.6480,1016.3,11111222 
ADCP,ioos:station:wmo:42362:1,2005-07-08T14:00:00Z,27.7950,-90.6480,1016.6,11111222 
ADCP,ioos:station:wmo:42362:1,2005-07-08T15:00:00Z,27.7950,-90.6480,1016.6,11111222 
ADCP,ioos:station:wmo:42362:1,2005-07-08T16:00:00Z,27.7950,-90.6480,1017.0,11111222 
ADCP,ioos:station:wmo:42362:1,2005-07-08T17:00:00Z,27.7950,-90.6480,1016.6,11111222 
ADCP,ioos:station:wmo:42362:1,2005-07-08T18:00:00Z,27.7950,-90.6480,1016.3,11111222 
ADCP,ioos:station:wmo:42362:1,2005-07-08T19:00:00Z,27.7950,-90.6480,1015.9,11111222 
ADCP,ioos:station:wmo:42362:1,2005-07-08T20:00:00Z,27.7950,-90.6480,1015.6,11111222 
ADCP,ioos:station:wmo:42362:1,2005-07-08T21:00:00Z,27.7950,-90.6480,1015.2,11111222 
ADCP,ioos:station:wmo:42362:1,2005-07-08T22:00:00Z,27.7950,-90.6480,1014.6,11111222 
ADCP,ioos:station:wmo:42362:1,2005-07-09T00:00:00Z,27.7950,-90.6480,1014.2,11111222 
ADCP,ioos:station:wmo:42362:1,2005-07-09T01:00:00Z,27.7950,-90.6480,1014.2,11111222 
ADCP,ioos:station:wmo:42362:1,2005-07-09T02:00:00Z,27.7950,-90.6480,1014.2,11111222 
ADCP,ioos:station:wmo:42362:1,2005-07-09T03:00:00Z,27.7950,-90.6480,1014.2,11111222 
ADCP,ioos:station:wmo:42362:1,2005-07-09T04:00:00Z,27.7950,-90.6480,1014.9,11111222 
ADCP,ioos:station:wmo:42362:1,2005-07-09T05:00:00Z,27.7950,-90.6480,1014.6,11111222 
ADCP,ioos:station:wmo:42362:1,2005-07-09T06:00:00Z,27.7950,-90.6480,1014.6,11111222 
ADCP,ioos:station:wmo:42362:1,2005-07-09T07:00:00Z,27.7950,-90.6480,1013.9,11111222 
ADCP,ioos:station:wmo:42362:1,2005-07-09T08:00:00Z,27.7950,-90.6480,1013.6,11111222 
ADCP,ioos:station:wmo:42362:1,2005-07-09T09:00:00Z,27.7950,-90.6480,1013.2,11111222 
ADCP,ioos:station:wmo:42362:1,2005-07-09T10:00:00Z,27.7950,-90.6480,1013.2,11111222 
ADCP,ioos:station:wmo:42362:1,2005-07-09T11:00:00Z,27.7950,-90.6480,1013.2,11111222 
ADCP,ioos:station:wmo:42362:1,2005-07-09T12:00:00Z,27.7950,-90.6480,1013.6,11111222 
ADCP,ioos:station:wmo:42362:1,2005-07-11T14:00:00Z,27.7950,-90.6480,1014.9,11111222 
ADCP,ioos:station:wmo:42362:1,2005-07-11T15:00:00Z,27.7950,-90.6480,1014.9,11111222 
ADCP,ioos:station:wmo:42362:1,2005-07-11T16:00:00Z,27.7950,-90.6480,1015.2,11111222 
ADCP,ioos:station:wmo:42362:1,2005-07-11T17:00:00Z,27.7950,-90.6480,1015.6,11111222 
ADCP,ioos:station:wmo:42362:1,2005-07-11T18:00:00Z,27.7950,-90.6480,1015.6,11111222 
ADCP,ioos:station:wmo:42362:1,2005-07-11T19:00:00Z,27.7950,-90.6480,1015.2,11111222 
ADCP,ioos:station:wmo:42362:1,2005-07-11T21:00:00Z,27.7950,-90.6480,1014.9,11111222 
ADCP,ioos:station:wmo:42362:1,2005-07-11T22:00:00Z,27.7950,-90.6480,1014.9,11111222 
ADCP,ioos:station:wmo:42362:1,2005-07-11T23:00:00Z,27.7950,-90.6480,1014.6,11111222 
ADCP,ioos:station:wmo:42362:1,2005-07-12T00:00:00Z,27.7950,-90.6480,1014.9,11111222 
ADCP,ioos:station:wmo:42362:1,2005-07-12T01:00:00Z,27.7950,-90.6480,1015.2,11111222 
ADCP,ioos:station:wmo:42362:1,2005-07-12T02:00:00Z,27.7950,-90.6480,1015.6,11111222 
ADCP,ioos:station:wmo:42362:1,2005-07-12T03:00:00Z,27.7950,-90.6480,1016.3,11111222 
ADCP,ioos:station:wmo:42362:1,2005-07-12T04:00:00Z,27.7950,-90.6480,1017.0,11111222 
ADCP,ioos:station:wmo:42362:1,2005-07-12T05:00:00Z,27.7950,-90.6480,1017.3,11111222 
ADCP,ioos:station:wmo:42362:1,2005-07-12T06:00:00Z,27.7950,-90.6480,1017.0,11111222 
ADCP,ioos:station:wmo:42362:1,2005-07-12T07:00:00Z,27.7950,-90.6480,1016.6,11111222 
ADCP,ioos:station:wmo:42362:1,2005-07-12T08:00:00Z,27.7950,-90.6480,1017.0,11111222 
ADCP,ioos:station:wmo:42362:1,2005-07-12T09:00:00Z,27.7950,-90.6480,1017.0,11111222 
ADCP,ioos:station:wmo:42362:1,2005-07-12T10:00:00Z,27.7950,-90.6480,1017.6,11111222 
ADCP,ioos:station:wmo:42362:1,2005-07-12T11:00:00Z,27.7950,-90.6480,1018.0,11111222 
ADCP,ioos:station:wmo:42362:1,2005-07-12T12:00:00Z,27.7950,-90.6480,1018.6,11111222 
ADCP,ioos:station:wmo:42362:1,2005-07-12T13:00:00Z,27.7950,-90.6480,1019.0,11111222 
ADCP,ioos:station:wmo:42362:1,2005-07-12T14:00:00Z,27.7950,-90.6480,1019.3,11111222 
ADCP,ioos:station:wmo:42362:1,2005-07-12T15:00:00Z,27.7950,-90.6480,1019.3,11111222 
ADCP,ioos:station:wmo:42362:1,2005-07-12T16:00:00Z,27.7950,-90.6480,1019.7,11111222 
ADCP,ioos:station:wmo:42362:1,2005-07-12T17:00:00Z,27.7950,-90.6480,1020.0,11111222 
ADCP,ioos:station:wmo:42362:1,2005-07-12T18:00:00Z,27.7950,-90.6480,1019.7,11111222 
ADCP,ioos:station:wmo:42362:1,2005-07-12T19:00:00Z,27.7950,-90.6480,1019.3,11111222 
ADCP,ioos:station:wmo:42362:1,2005-07-12T20:00:00Z,27.7950,-90.6480,1019.0,11111222 
ADCP,ioos:station:wmo:42362:1,2005-07-12T21:00:00Z,27.7950,-90.6480,1019.0,11111222 
ADCP,ioos:station:wmo:42362:1,2005-07-12T22:00:00Z,27.7950,-90.6480,1018.6,11111222 
ADCP,ioos:station:wmo:42362:1,2005-07-12T23:00:00Z,27.7950,-90.6480,1019.0,11111222 
ADCP,ioos:station:wmo:42362:1,2005-07-13T00:00:00Z,27.7950,-90.6480,1018.6,11111222 
ADCP,ioos:station:wmo:42362:1,2005-07-13T01:00:00Z,27.7950,-90.6480,1019.0,11111222 
ADCP,ioos:station:wmo:42362:1,2005-07-13T02:00:00Z,27.7950,-90.6480,1019.0,11111222 
ADCP,ioos:station:wmo:42362:1,2005-07-13T03:00:00Z,27.7950,-90.6480,1019.0,11111222 
ADCP,ioos:station:wmo:42362:1,2005-07-13T04:00:00Z,27.7950,-90.6480,1019.3,11111222 
ADCP,ioos:station:wmo:42362:1,2005-07-13T05:00:00Z,27.7950,-90.6480,1019.3,11111222 
ADCP,ioos:station:wmo:42362:1,2005-07-13T06:00:00Z,27.7950,-90.6480,1018.6,11111222 
ADCP,ioos:station:wmo:42362:1,2005-07-13T07:00:00Z,27.7950,-90.6480,1018.6,11111222 
ADCP,ioos:station:wmo:42362:1,2005-07-13T08:00:00Z,27.7950,-90.6480,1018.0,11111222 
ADCP,ioos:station:wmo:42362:1,2005-07-13T09:00:00Z,27.7950,-90.6480,1018.0,11111222 
ADCP,ioos:station:wmo:42362:1,2005-07-13T10:00:00Z,27.7950,-90.6480,1018.0,11111222 
ADCP,ioos:station:wmo:42362:1,2005-07-13T11:00:00Z,27.7950,-90.6480,1018.0,11111222 
ADCP,ioos:station:wmo:42362:1,2005-07-13T12:00:00Z,27.7950,-90.6480,1018.3,11111222 
ADCP,ioos:station:wmo:42362:1,2005-07-13T13:00:00Z,27.7950,-90.6480,1018.6,11111222 
ADCP,ioos:station:wmo:42362:1,2005-07-13T14:00:00Z,27.7950,-90.6480,1019.3,11111222 
ADCP,ioos:station:wmo:42362:1,2005-07-13T15:00:00Z,27.7950,-90.6480,1019.3,11111222 
ADCP,ioos:station:wmo:42362:1,2005-07-13T16:00:00Z,27.7950,-90.6480,1019.3,11111222 
ADCP,ioos:station:wmo:42362:1,2005-07-13T17:00:00Z,27.7950,-90.6480,1019.3,11111222 
ADCP,ioos:station:wmo:42362:1,2005-07-13T18:00:00Z,27.7950,-90.6480,1019.0,11111222 
ADCP,ioos:station:wmo:42362:1,2005-07-13T19:00:00Z,27.7950,-90.6480,1018.3,11111222 
ADCP,ioos:station:wmo:42362:1,2005-07-13T20:00:00Z,27.7950,-90.6480,1017.6,11111222 
ADCP,ioos:station:wmo:42362:1,2005-07-13T21:00:00Z,27.7950,-90.6480,1017.3,11111222 
ADCP,ioos:station:wmo:42362:1,2005-07-13T22:00:00Z,27.7950,-90.6480,1017.0,11111222 
ADCP,ioos:station:wmo:42362:1,2005-07-13T23:00:00Z,27.7950,-90.6480,1015.9,11111222 
ADCP,ioos:station:wmo:42362:1,2005-07-14T00:00:00Z,27.7950,-90.6480,1015.6,11111222 
ADCP,ioos:station:wmo:42362:1,2005-07-14T01:00:00Z,27.7950,-90.6480,1016.3,11111222 
ADCP,ioos:station:wmo:42362:1,2005-07-14T02:00:00Z,27.7950,-90.6480,1016.6,11111222 
ADCP,ioos:station:wmo:42362:1,2005-07-14T03:00:00Z,27.7950,-90.6480,1016.6,11111222 
ADCP,ioos:station:wmo:42362:1,2005-07-14T04:00:00Z,27.7950,-90.6480,1017.3,11111222 
ADCP,ioos:station:wmo:42362:1,2005-07-14T05:00:00Z,27.7950,-90.6480,1017.0,11111222 
ADCP,ioos:station:wmo:42362:1,2005-07-14T06:00:00Z,27.7950,-90.6480,1016.6,11111222 
ADCP,ioos:station:wmo:42362:1,2005-07-14T07:00:00Z,27.7950,-90.6480,1015.9,11111222 
ADCP,ioos:station:wmo:42362:1,2005-07-14T08:00:00Z,27.7950,-90.6480,1015.6,11111222 
ADCP,ioos:station:wmo:42362:1,2005-07-14T09:00:00Z,27.7950,-90.6480,1015.6,11111222 
ADCP,ioos:station:wmo:42362:1,2005-07-14T10:00:00Z,27.7950,-90.6480,1015.2,11111222 
ADCP,ioos:station:wmo:42362:1,2005-07-14T11:00:00Z,27.7950,-90.6480,1015.6,11111222 
ADCP,ioos:station:wmo:42362:1,2005-07-14T12:00:00Z,27.7950,-90.6480,1015.9,11111222 
ADCP,ioos:station:wmo:42362:1,2005-07-14T13:00:00Z,27.7950,-90.6480,1015.9,11111222 
ADCP,ioos:station:wmo:42362:1,2005-07-14T14:00:00Z,27.7950,-90.6480,1016.3,11111222 
ADCP,ioos:station:wmo:42362:1,2005-07-14T15:00:00Z,27.7950,-90.6480,1016.6,11111222 
ADCP,ioos:station:wmo:42362:1,2005-07-14T16:00:00Z,27.7950,-90.6480,1016.6,11111222 
ADCP,ioos:station:wmo:42362:1,2005-07-14T17:00:00Z,27.7950,-90.6480,1015.9,11111222 
ADCP,ioos:station:wmo:42362:1,2005-07-14T18:00:00Z,27.7950,-90.6480,1015.9,11111222 
ADCP,ioos:station:wmo:42362:1,2005-07-14T19:00:00Z,27.7950,-90.6480,1015.2,11111222 
ADCP,ioos:station:wmo:42362:1,2005-07-14T20:00:00Z,27.7950,-90.6480,1014.9,11111222 
ADCP,ioos:station:wmo:42362:1,2005-07-14T21:00:00Z,27.7950,-90.6480,1014.9,11111222 
ADCP,ioos:station:wmo:42362:1,2005-07-14T22:00:00Z,27.7950,-90.6480,1014.9,11111222 
ADCP,ioos:station:wmo:42362:1,2005-07-14T23:00:00Z,27.7950,-90.6480,1014.2,11111222 
ADCP,ioos:station:wmo:42362:1,2005-07-15T00:00:00Z,27.7950,-90.6480,1014.2,11111222 
ADCP,ioos:station:wmo:42362:1,2005-07-15T01:00:00Z,27.7950,-90.6480,1013.9,11111222 
ADCP,ioos:station:wmo:42362:1,2005-07-15T02:00:00Z,27.7950,-90.6480,1013.9,11111222 
ADCP,ioos:station:wmo:42362:1,2005-07-15T03:00:00Z,27.7950,-90.6480,1014.2,11111222 
ADCP,ioos:station:wmo:42362:1,2005-07-15T04:00:00Z,27.7950,-90.6480,1014.9,11111222 
ADCP,ioos:station:wmo:42362:1,2005-07-15T05:00:00Z,27.7950,-90.6480,1014.9,11111222 
ADCP,ioos:station:wmo:42362:1,2005-07-15T06:00:00Z,27.7950,-90.6480,1014.9,11111222 
ADCP,ioos:station:wmo:42362:1,2005-07-15T07:00:00Z,27.7950,-90.6480,1014.6,11111222 
ADCP,ioos:station:wmo:42362:1,2005-07-15T08:00:00Z,27.7950,-90.6480,1013.9,11111222 
ADCP,ioos:station:wmo:42362:1,2005-07-15T09:00:00Z,27.7950,-90.6480,1014.2,11111222 
ADCP,ioos:station:wmo:42362:1,2005-07-15T10:00:00Z,27.7950,-90.6480,1014.2,11111222 
ADCP,ioos:station:wmo:42362:1,2005-07-15T11:00:00Z,27.7950,-90.6480,1014.6,11111222 
ADCP,ioos:station:wmo:42362:1,2005-07-15T12:00:00Z,27.7950,-90.6480,1014.6,11111222 
ADCP,ioos:station:wmo:42362:1,2005-07-15T13:00:00Z,27.7950,-90.6480,1014.9,11111222 
ADCP,ioos:station:wmo:42362:1,2005-07-15T14:00:00Z,27.7950,-90.6480,1015.6,11111222 
ADCP,ioos:station:wmo:42362:1,2005-07-15T15:00:00Z,27.7950,-90.6480,1016.3,11111222 
ADCP,ioos:station:wmo:42362:1,2005-07-15T16:00:00Z,27.7950,-90.6480,1016.3,11111222 
ADCP,ioos:station:wmo:42362:1,2005-07-15T17:00:00Z,27.7950,-90.6480,1015.9,11111222 
ADCP,ioos:station:wmo:42362:1,2005-07-15T18:00:00Z,27.7950,-90.6480,1015.9,11111222 
ADCP,ioos:station:wmo:42362:1,2005-07-15T19:00:00Z,27.7950,-90.6480,1016.3,11111222 
ADCP,ioos:station:wmo:42362:1,2005-07-15T20:00:00Z,27.7950,-90.6480,1015.9,11111222 
ADCP,ioos:station:wmo:42362:1,2005-07-15T21:00:00Z,27.7950,-90.6480,1015.6,11111222 
ADCP,ioos:station:wmo:42362:1,2005-07-15T22:00:00Z,27.7950,-90.6480,1015.2,11111222 
ADCP,ioos:station:wmo:42362:1,2005-07-15T23:00:00Z,27.7950,-90.6480,1014.9,11111222 
ADCP,ioos:station:wmo:42362:1,2005-07-16T00:00:00Z,27.7950,-90.6480,1014.9,11111222 
ADCP,ioos:station:wmo:42362:1,2005-07-16T01:00:00Z,27.7950,-90.6480,1014.6,11111222 
ADCP,ioos:station:wmo:42362:1,2005-07-16T02:00:00Z,27.7950,-90.6480,1015.2,11111222 
ADCP,ioos:station:wmo:42362:1,2005-07-16T03:00:00Z,27.7950,-90.6480,1015.6,11111222 
ADCP,ioos:station:wmo:42362:1,2005-07-16T04:00:00Z,27.7950,-90.6480,1015.9,11111222 
ADCP,ioos:station:wmo:42362:1,2005-07-16T05:00:00Z,27.7950,-90.6480,1016.6,11111222 
ADCP,ioos:station:wmo:42362:1,2005-07-16T06:00:00Z,27.7950,-90.6480,1017.0,11111222 
ADCP,ioos:station:wmo:42362:1,2005-07-16T07:00:00Z,27.7950,-90.6480,1016.6,11111222 
ADCP,ioos:station:wmo:42362:1,2005-07-16T08:00:00Z,27.7950,-90.6480,1016.3,11111222 
ADCP,ioos:station:wmo:42362:1,2005-07-16T09:00:00Z,27.7950,-90.6480,1016.3,11111222 
ADCP,ioos:station:wmo:42362:1,2005-07-16T10:00:00Z,27.7950,-90.6480,1016.6,11111222 
ADCP,ioos:station:wmo:42362:1,2005-07-16T11:00:00Z,27.7950,-90.6480,1017.3,11111222 
ADCP,ioos:station:wmo:42362:1,2005-07-16T12:00:00Z,27.7950,-90.6480,1017.6,11111222 
ADCP,ioos:station:wmo:42362:1,2005-07-16T13:00:00Z,27.7950,-90.6480,1017.3,11111222 